Location: Gouvernes
(48.8601°N, 2.6907°E)
Time: 16:18:56
(UTC+00:00)

CZ-2C R/B - Pass Details

Date: 16 October 2021
Orbit: 784 x 871 km, 98.2° (Epoch: 28 November)

Event Time Altitude Azimuth Distance (km) Brightness Sun altitude
Rises 17:47:09 0° 17° (NNE) 3,472 5.7 -8.9°
Reaches altitude 10° 17:49:37 10° 22° (NNE) 2,530 4.9 -9.3°
Maximum altitude 17:55:09 54° 99° (E) 1,048 2.9 -10.2°
Drops below altitude 10° 18:00:35 10° 177° (S) 2,489 5.1 -11.1°
Sets 18:02:59 0° 182° (S) 3,411 5.9 -11.5°
